Ontario, CA

3:26 AM PDT on May 23, 2017 (GMT -0700)
Ontario International

Weather History for KONT - January, 2013

Change the Weather History Date:

Saturday, January 5, 2013

  Actual Average Record
Temperature  
Mean Temperature 54 °F 54 °F  
Max Temperature 69 °F 65 °F 79 °F (2011)
Min Temperature 39 °F 43 °F 30 °F (2010)
Degree Days  
Heating Degree Days 11 11  
Month to date heating degree days 54 335  
Since 1 July heating degree days 521 560  
Cooling Degree Days 0 0  
Month to date cooling degree days 0 2  
Year to date cooling degree days 0 1707  
Growing Degree Days 8 (Base 50)    
Moisture  
Dew Point 24 °F    
Average Humidity 34    
Maximum Humidity 59    
Minimum Humidity 9    
Precipitation  
Precipitation 0.00 in 0.16 in 0.63 in (2004)
Month to date precipitation 0.00 2.32  
Year to date precipitation 0.00 15.04  
Since 1 July precipitation 2.77  
Snow  
Snow 0.00 in - - ()
Month to date snowfall 0.0  
Year to date snowfall 0.0  
Snow Depth 0.00 in    
Sea Level Pressure  
Sea Level Pressure 30.22 in    
Wind  
Wind Speed 2 mph (NW)    
Max Wind Speed 9 mph    
Max Gust Speed 10 mph    
Visibility 10 miles    
Events      
T = Trace of Precipitation, MM = Missing Value Source: NWS Daily Summary

Daily Weather History Graph

Daily Weather History Graph

Search for Another Location

Airport or City:

Trip Planner

Search our weather history database for the weather conditions in past years. The results will help you decide how hot, cold, wet, or windy it might be!

Date:

Astronomy

Jan. 05, 2013 Rise Set
Actual Time 6:56 AM PST 4:55 PM PST
Civil Twilight 6:29 AM PST 5:23 PM PST
Nautical Twilight 5:57 AM PST 5:54 PM PST
Astronomical Twilight 5:27 AM PST 6:24 PM PST
Moon 12:17 AM PST (1/5) 11:40 AM PST (1/5)
Length of Visible Light 10h 54m
Length of Day
9h 59m
Last Quarter, 43% of the Moon is Illuminated
Jan 5
Last Quarter
Jan 11
New
Jan 18
First Quarter
Jan 26
Full
Feb 3
Last Quarter

Hourly Weather History & Observations

Time (PST) Temp. Windchill Dew Point Humidity Pressure Visibility Wind Dir Wind Speed Gust Speed Precip Events Conditions
12:53 AM 45.0 °F - 25.0 °F 46% 30.25 in 10.0 mi Calm Calm - N/A   Clear
1:53 AM 43.0 °F - 25.0 °F 49% 30.25 in 10.0 mi Calm Calm - N/A   Clear
2:53 AM 44.1 °F 42.5 °F 23.0 °F 43% 30.25 in 10.0 mi North 3.5 mph - N/A   Clear
3:53 AM 46.0 °F 43.1 °F 24.1 °F 42% 30.24 in 10.0 mi NNE 5.8 mph - N/A   Clear
4:53 AM 42.1 °F - 23.0 °F 47% 30.25 in 10.0 mi Calm Calm - N/A   Clear
5:53 AM 41.0 °F 39.0 °F 24.1 °F 51% 30.25 in 10.0 mi NE 3.5 mph - N/A   Clear
6:53 AM 44.1 °F 42.5 °F 23.0 °F 43% 30.28 in 10.0 mi NNE 3.5 mph - N/A   Clear
7:53 AM 46.9 °F - 25.0 °F 42% 30.29 in 10.0 mi ENE 3.5 mph - N/A   Clear
8:53 AM 57.0 °F - 21.0 °F 25% 30.29 in 10.0 mi Calm Calm - N/A   Partly Cloudy
9:53 AM 64.0 °F - 17.1 °F 16% 30.27 in 10.0 mi Calm Calm - N/A   Partly Cloudy
10:53 AM 68.0 °F - 15.1 °F 13% 30.25 in 10.0 mi Calm Calm - N/A   Partly Cloudy
11:53 AM 75.9 °F - 12.9 °F 9% 30.21 in 10.0 mi Calm Calm - N/A   Partly Cloudy
12:53 PM 70.0 °F - 13.1 °F 11% 30.19 in 10.0 mi WSW 4.6 mph - N/A   Scattered Clouds
1:53 PM 73.4 °F - 10.0 °F 9% 30.17 in 10.0 mi NW 3.5 mph - N/A   Mostly Cloudy
2:53 PM 68.9 °F - 10.9 °F 11% 30.17 in 10.0 mi Calm Calm - N/A   Overcast
3:53 PM 66.9 °F - 14.0 °F 13% 30.17 in 10.0 mi WSW 4.6 mph - N/A   Overcast
4:53 PM 61.7 °F - 28.9 °F 29% 30.18 in 10.0 mi WSW 5.8 mph - N/A   Mostly Cloudy
5:53 PM 55.8 °F - 33.1 °F 42% 30.18 in 10.0 mi WSW 3.5 mph - N/A   Scattered Clouds
6:53 PM 54.7 °F - 35.1 °F 48% 30.18 in 10.0 mi South 3.5 mph - N/A   Scattered Clouds
7:53 PM 52.0 °F - 37.0 °F 57% 30.18 in 10.0 mi South 4.6 mph - N/A   Scattered Clouds
8:53 PM 51.6 °F - 31.1 °F 45% 30.19 in 10.0 mi Calm Calm - N/A   Scattered Clouds
9:53 PM 50.7 °F - 31.1 °F 47% 30.20 in 10.0 mi Calm Calm - N/A   Mostly Cloudy
10:53 PM 50.2 °F - 31.1 °F 48% 30.19 in 10.0 mi WNW 3.5 mph - N/A   Scattered Clouds
11:53 PM 48.9 °F - 32.0 °F 52% 30.18 in 10.0 mi NNE 3.5 mph - N/A   Scattered Clouds